Location: Home
(42.5358°N, 72.7383°W)
Time: 15:47:55
(UTC-04:00)

Kosmos-337 - Pass Details

Date: 08 July 2022
Orbit: 1467 x 1552 km, 74.0° (Epoch: 18 August)

Event Time Altitude Azimuth Distance (km) Brightness Sun altitude
Rises 01:11:48 0° 339° (NNW) 4,732 ? -24.9°
Reaches altitude 10° 01:14:48 10° 341° (NNW) 3,742 ? -24.8°
Maximum altitude 01:24:00 82° 70° (ENE) 1,555 ? -24.7°
Enters shadow 01:28:42 34° 154° (SSE) 2,332 ? -24.6°
